Time,TemperatureF,DewpointF,PressureIn,WindDirection,WindDirectionDegrees,WindSpeedMPH,WindSpeedGustMPH,Humidity,HourlyPrecipIn,Conditions,Clouds,dailyrainin,SolarRadiationWatts/m^2,SoftwareType,DateUTC
2013-06-28 00:01:00,76.2,67.7,29.72,ESE,116,1.0,2.0,75,0.00,,,0.00,0,WeatherCatV1.15B25,2013-06-28 04:01:00,
2013-06-28 00:06:00,76.2,68.4,29.72,SW,217,2.0,3.0,77,0.00,,,0.00,0,WeatherCatV1.15B25,2013-06-28 04:06:00,
2013-06-28 00:11:00,76.1,69.1,29.72,WSW,240,3.0,6.0,79,0.00,,,0.00,0,WeatherCatV1.15B25,2013-06-28 04:11:00,
2013-06-28 00:16:00,76.2,69.9,29.72,SW,223,2.0,5.0,81,0.00,,,0.00,0,WeatherCatV1.15B25,2013-06-28 04:16:00,
2013-06-28 00:21:00,76.2,70.3,29.72,WSW,244,2.0,2.0,82,0.00,,,0.00,0,WeatherCatV1.15B25,2013-06-28 04:21:00,
2013-06-28 00:26:00,76.2,70.6,29.72,SW,235,1.0,3.0,83,0.00,,,0.00,0,WeatherCatV1.15B25,2013-06-28 04:26:00,
2013-06-28 00:31:00,76.1,70.9,29.72,SW,233,1.0,3.0,84,0.00,,,0.00,0,WeatherCatV1.15B25,2013-06-28 04:31:00,
2013-06-28 00:36:00,76.1,71.2,29.72,WSW,254,2.0,4.0,85,0.00,,,0.00,0,WeatherCatV1.15B25,2013-06-28 04:36:00,
2013-06-28 00:41:00,76.0,71.2,29.73,WSW,244,5.0,5.0,85,0.00,,,0.00,0,WeatherCatV1.15B25,2013-06-28 04:41:00,
2013-06-28 00:46:00,75.9,71.4,29.73,SW,228,3.0,5.0,86,0.00,,,0.00,0,WeatherCatV1.15B25,2013-06-28 04:46:00,
2013-06-28 00:51:00,75.8,71.3,29.73,WSW,258,4.0,4.0,86,0.00,,,0.00,0,WeatherCatV1.15B25,2013-06-28 04:51:00,
2013-06-28 00:56:00,75.7,71.5,29.73,WSW,254,2.0,4.0,87,0.00,,,0.00,0,WeatherCatV1.15B25,2013-06-28 04:56:00,
2013-06-28 01:01:00,75.6,71.4,29.72,WNW,291,2.0,4.0,87,0.00,,,0.00,0,WeatherCatV1.15B25,2013-06-28 05:01:00,
2013-06-28 01:06:00,75.4,71.2,29.72,West,263,2.0,2.0,87,0.00,,,0.00,0,WeatherCatV1.15B25,2013-06-28 05:06:00,
2013-06-28 01:11:00,75.3,71.5,29.72,WSW,239,2.0,4.0,88,0.00,,,0.00,0,WeatherCatV1.15B25,2013-06-28 05:11:00,
2013-06-28 01:16:00,75.2,71.4,29.72,WSW,242,1.0,5.0,88,0.00,,,0.00,0,WeatherCatV1.15B25,2013-06-28 05:16:00,
2013-06-28 01:21:00,75.1,71.3,29.72,WSW,246,1.0,3.0,88,0.00,,,0.00,0,WeatherCatV1.15B25,2013-06-28 05:21:00,
2013-06-28 01:26:00,75.0,71.2,29.72,WNW,287,2.0,3.0,88,0.00,,,0.00,0,WeatherCatV1.15B25,2013-06-28 05:26:00,
2013-06-28 01:31:00,74.9,71.1,29.72,West,266,3.0,4.0,88,0.00,,,0.00,0,WeatherCatV1.15B25,2013-06-28 05:31:00,
2013-06-28 01:36:00,74.9,71.1,29.72,WSW,244,3.0,3.0,88,0.00,,,0.00,0,WeatherCatV1.15B25,2013-06-28 05:36:00,
2013-06-28 01:41:00,74.8,71.0,29.72,SW,233,3.0,6.0,88,0.00,,,0.00,0,WeatherCatV1.15B25,2013-06-28 05:41:00,
2013-06-28 01:46:00,74.8,71.3,29.72,WSW,248,2.0,5.0,89,0.00,,,0.00,0,WeatherCatV1.15B25,2013-06-28 05:46:00,
2013-06-28 01:51:00,74.7,71.2,29.72,WSW,246,2.0,3.0,89,0.00,,,0.00,0,WeatherCatV1.15B25,2013-06-28 05:51:00,
2013-06-28 01:56:00,74.6,71.1,29.72,WSW,241,4.0,5.0,89,0.00,,,0.00,0,WeatherCatV1.15B25,2013-06-28 05:56:00,
2013-06-28 02:01:00,74.5,71.0,29.72,WSW,244,1.0,4.0,89,0.00,,,0.00,0,WeatherCatV1.15B25,2013-06-28 06:01:00,
2013-06-28 02:02:00,74.5,71.0,29.72,SW,233,3.0,5.0,89,0.00,,,0.00,0,WeatherCatV1.15B25,2013-06-28 06:02:00,
2013-06-28 02:07:00,74.4,70.9,29.72,SW,231,2.0,5.0,89,0.00,,,0.00,0,WeatherCatV1.15B25,2013-06-28 06:07:00,
2013-06-28 02:12:00,74.3,70.8,29.71,WSW,242,2.0,2.0,89,0.00,,,0.00,0,WeatherCatV1.15B25,2013-06-28 06:12:00,
2013-06-28 02:17:00,74.3,70.8,29.71,WSW,242,3.0,5.0,89,0.00,,,0.00,0,WeatherCatV1.15B25,2013-06-28 06:17:00,
2013-06-28 02:22:00,74.2,70.7,29.72,WSW,239,2.0,3.0,89,0.00,,,0.00,0,WeatherCatV1.15B25,2013-06-28 06:22:00,
2013-06-28 02:27:00,74.1,70.6,29.71,SW,235,1.0,3.0,89,0.00,,,0.00,0,WeatherCatV1.15B25,2013-06-28 06:27:00,
2013-06-28 02:32:00,74.1,70.6,29.71,WSW,239,2.0,5.0,89,0.00,,,0.00,0,WeatherCatV1.15B25,2013-06-28 06:32:00,
2013-06-28 02:37:00,74.1,70.6,29.70,WSW,244,2.0,4.0,89,0.00,,,0.00,0,WeatherCatV1.15B25,2013-06-28 06:37:00,
2013-06-28 02:42:00,74.0,70.5,29.70,WSW,242,4.0,6.0,89,0.00,,,0.00,0,WeatherCatV1.15B25,2013-06-28 06:42:00,
2013-06-28 02:47:00,74.0,70.5,29.70,SW,233,3.0,4.0,89,0.00,,,0.00,0,WeatherCatV1.15B25,2013-06-28 06:47:00,
2013-06-28 02:52:00,74.0,70.5,29.70,WSW,244,5.0,8.0,89,0.00,,,0.00,0,WeatherCatV1.15B25,2013-06-28 06:52:00,
2013-06-28 02:57:00,74.0,70.5,29.70,WSW,242,3.0,5.0,89,0.00,,,0.00,0,WeatherCatV1.15B25,2013-06-28 06:57:00,
2013-06-28 03:02:00,74.0,70.5,29.70,WSW,254,3.0,3.0,89,0.00,,,0.00,0,WeatherCatV1.15B25,2013-06-28 07:02:00,
2013-06-28 03:07:00,74.0,70.2,29.70,WSW,242,3.0,5.0,88,0.00,,,0.00,0,WeatherCatV1.15B25,2013-06-28 07:07:00,
2013-06-28 03:12:00,74.0,70.2,29.70,SW,223,7.0,7.0,88,0.00,,,0.00,0,WeatherCatV1.15B25,2013-06-28 07:12:00,
2013-06-28 03:17:00,74.0,69.9,29.70,WSW,250,2.0,9.0,87,0.00,,,0.00,0,WeatherCatV1.15B25,2013-06-28 07:17:00,
2013-06-28 03:22:00,74.1,70.0,29.70,WSW,244,5.0,5.0,87,0.00,,,0.00,0,WeatherCatV1.15B25,2013-06-28 07:22:00,
2013-06-28 03:27:00,74.0,69.9,29.69,WSW,242,4.0,5.0,87,0.00,,,0.00,0,WeatherCatV1.15B25,2013-06-28 07:27:00,
2013-06-28 03:32:00,74.0,69.9,29.69,SW,229,4.0,5.0,87,0.00,,,0.00,0,WeatherCatV1.15B25,2013-06-28 07:32:00,
2013-06-28 03:37:00,73.9,69.8,29.69,WSW,249,3.0,8.0,87,0.00,,,0.00,0,WeatherCatV1.15B25,2013-06-28 07:37:00,
2013-06-28 03:42:00,73.9,69.8,29.69,SW,235,7.0,7.0,87,0.00,,,0.00,0,WeatherCatV1.15B25,2013-06-28 07:42:00,
2013-06-28 03:47:00,73.8,69.7,29.69,WSW,258,5.0,6.0,87,0.00,,,0.00,0,WeatherCatV1.15B25,2013-06-28 07:47:00,
2013-06-28 03:52:00,73.7,69.2,29.69,West,259,3.0,6.0,86,0.00,,,0.00,0,WeatherCatV1.15B25,2013-06-28 07:52:00,
2013-06-28 03:57:00,73.7,69.2,29.69,SSW,206,8.0,11.0,86,0.00,,,0.00,0,WeatherCatV1.15B25,2013-06-28 07:57:00,
2013-06-28 04:02:00,73.7,69.2,29.69,WSW,244,4.0,4.0,86,0.00,,,0.00,0,WeatherCatV1.15B25,2013-06-28 08:02:00,
2013-06-28 04:07:00,73.6,69.1,29.68,WSW,244,3.0,9.0,86,0.00,,,0.00,0,WeatherCatV1.15B25,2013-06-28 08:07:00,
2013-06-28 04:12:00,73.5,69.0,29.68,WSW,240,3.0,6.0,86,0.00,,,0.00,0,WeatherCatV1.15B25,2013-06-28 08:12:00,
2013-06-28 04:17:00,73.4,68.9,29.68,SW,234,4.0,6.0,86,0.00,,,0.00,0,WeatherCatV1.15B25,2013-06-28 08:17:00,
2013-06-28 04:22:00,73.4,68.9,29.68,WSW,242,3.0,7.0,86,0.00,,,0.00,0,WeatherCatV1.15B25,2013-06-28 08:22:00,
2013-06-28 04:27:00,73.2,68.8,29.68,WSW,239,4.0,8.0,86,0.00,,,0.00,0,WeatherCatV1.15B25,2013-06-28 08:27:00,
2013-06-28 04:32:00,73.2,68.8,29.68,SW,227,3.0,8.0,86,0.00,,,0.00,0,WeatherCatV1.15B25,2013-06-28 08:32:00,
2013-06-28 04:37:00,73.1,68.7,29.68,WSW,245,7.0,9.0,86,0.00,,,0.00,0,WeatherCatV1.15B25,2013-06-28 08:37:00,
2013-06-28 04:42:00,73.0,68.6,29.68,WSW,239,6.0,9.0,86,0.00,,,0.00,0,WeatherCatV1.15B25,2013-06-28 08:42:00,
2013-06-28 04:47:00,73.0,68.2,29.68,WSW,240,3.0,8.0,85,0.00,,,0.00,0,WeatherCatV1.15B25,2013-06-28 08:47:00,
2013-06-28 04:52:00,72.9,68.1,29.68,SW,236,3.0,8.0,85,0.00,,,0.00,0,WeatherCatV1.15B25,2013-06-28 08:52:00,
2013-06-28 04:57:00,72.8,68.0,29.68,WSW,245,4.0,5.0,85,0.00,,,0.00,0,WeatherCatV1.15B25,2013-06-28 08:57:00,
2013-06-28 05:02:00,72.8,68.0,29.68,WSW,239,5.0,8.0,85,0.00,,,0.00,0,WeatherCatV1.15B25,2013-06-28 09:02:00,
2013-06-28 05:07:00,72.7,67.9,29.68,SW,222,5.0,6.0,85,0.00,,,0.00,0,WeatherCatV1.15B25,2013-06-28 09:07:00,
2013-06-28 05:13:00,72.6,67.8,29.68,WSW,247,2.0,6.0,85,0.00,,,0.00,0,WeatherCatV1.15B25,2013-06-28 09:13:00,
2013-06-28 05:18:00,72.5,67.7,29.68,SW,229,2.0,7.0,85,0.00,,,0.00,0,WeatherCatV1.15B25,2013-06-28 09:18:00,
2013-06-28 05:23:00,72.4,67.6,29.68,WSW,254,5.0,7.0,85,0.00,,,0.00,0,WeatherCatV1.15B25,2013-06-28 09:23:00,
2013-06-28 05:28:00,72.3,67.9,29.68,WSW,237,3.0,4.0,86,0.00,,,0.00,0,WeatherCatV1.15B25,2013-06-28 09:28:00,
2013-06-28 05:33:00,72.2,67.8,29.68,WSW,246,6.0,7.0,86,0.00,,,0.00,0,WeatherCatV1.15B25,2013-06-28 09:33:00,
2013-06-28 05:38:00,72.1,67.7,29.68,WSW,238,6.0,6.0,86,0.00,,,0.00,0,WeatherCatV1.15B25,2013-06-28 09:38:00,
2013-06-28 05:43:00,72.0,67.6,29.68,West,276,2.0,8.0,86,0.00,,,0.00,0,WeatherCatV1.15B25,2013-06-28 09:43:00,
2013-06-28 05:48:00,72.0,67.6,29.68,WSW,249,2.0,4.0,86,0.00,,,0.00,0,WeatherCatV1.15B25,2013-06-28 09:48:00,
2013-06-28 05:53:00,71.9,67.5,29.68,SW,235,5.0,8.0,86,0.00,,,0.00,0,WeatherCatV1.15B25,2013-06-28 09:53:00,
2013-06-28 05:58:00,71.8,67.4,29.68,SW,236,1.0,4.0,86,0.00,,,0.00,0,WeatherCatV1.15B25,2013-06-28 09:58:00,
2013-06-28 06:03:00,71.7,67.3,29.68,WSW,239,4.0,10.0,86,0.00,,,0.00,0,WeatherCatV1.15B25,2013-06-28 10:03:00,
2013-06-28 06:08:00,71.7,67.3,29.68,SW,231,2.0,5.0,86,0.00,,,0.00,0,WeatherCatV1.15B25,2013-06-28 10:08:00,
2013-06-28 06:13:00,71.6,67.2,29.68,WSW,258,2.0,5.0,86,0.00,,,0.00,0,WeatherCatV1.15B25,2013-06-28 10:13:00,
2013-06-28 06:18:00,71.5,67.1,29.68,WSW,238,3.0,6.0,86,0.00,,,0.00,0,WeatherCatV1.15B25,2013-06-28 10:18:00,
2013-06-28 06:23:00,71.4,67.0,29.68,WNW,284,3.0,5.0,86,0.00,,,0.00,5,WeatherCatV1.15B25,2013-06-28 10:23:00,
2013-06-28 06:28:00,71.4,67.0,29.68,WSW,254,2.0,5.0,86,0.00,,,0.00,9,WeatherCatV1.15B25,2013-06-28 10:28:00,
2013-06-28 06:33:00,71.2,66.8,29.68,West,279,3.0,11.0,86,0.00,,,0.00,11,WeatherCatV1.15B25,2013-06-28 10:33:00,
2013-06-28 06:38:00,71.2,66.8,29.68,West,260,2.0,3.0,86,0.00,,,0.00,11,WeatherCatV1.15B25,2013-06-28 10:38:00,
2013-06-28 06:43:00,71.2,66.8,29.68,WNW,293,5.0,8.0,86,0.00,,,0.00,14,WeatherCatV1.15B25,2013-06-28 10:43:00,
2013-06-28 06:48:00,71.1,66.7,29.68,SW,233,5.0,6.0,86,0.00,,,0.00,18,WeatherCatV1.15B25,2013-06-28 10:48:00,
2013-06-28 06:53:00,71.1,66.7,29.68,West,275,1.0,7.0,86,0.00,,,0.00,21,WeatherCatV1.15B25,2013-06-28 10:53:00,
2013-06-28 06:58:00,71.0,66.6,29.68,WSW,250,2.0,8.0,86,0.00,,,0.00,26,WeatherCatV1.15B25,2013-06-28 10:58:00,
2013-06-28 07:03:00,71.1,66.7,29.68,WNW,289,1.0,5.0,86,0.00,,,0.00,39,WeatherCatV1.15B25,2013-06-28 11:03:00,
2013-06-28 07:08:00,71.1,66.7,29.68,WSW,237,6.0,9.0,86,0.00,,,0.00,51,WeatherCatV1.15B25,2013-06-28 11:08:00,
2013-06-28 07:13:00,71.1,66.7,29.68,WSW,246,4.0,7.0,86,0.00,,,0.00,63,WeatherCatV1.15B25,2013-06-28 11:13:00,
2013-06-28 07:18:00,71.2,66.8,29.68,WSW,244,4.0,8.0,86,0.00,,,0.00,74,WeatherCatV1.15B25,2013-06-28 11:18:00,
2013-06-28 07:23:00,71.3,66.5,29.68,West,272,4.0,9.0,85,0.00,,,0.00,90,WeatherCatV1.15B25,2013-06-28 11:23:00,
2013-06-28 07:28:00,71.4,66.6,29.68,WSW,242,3.0,5.0,85,0.00,,,0.00,105,WeatherCatV1.15B25,2013-06-28 11:28:00,
2013-06-28 07:33:00,71.5,66.7,29.69,WSW,256,2.0,5.0,85,0.00,,,0.00,123,WeatherCatV1.15B25,2013-06-28 11:33:00,
2013-06-28 07:38:00,71.6,66.8,29.68,SW,221,2.0,6.0,85,0.00,,,0.00,141,WeatherCatV1.15B25,2013-06-28 11:38:00,
2013-06-28 07:43:00,71.7,66.6,29.69,WSW,256,4.0,8.0,84,0.00,,,0.00,158,WeatherCatV1.15B25,2013-06-28 11:43:00,
2013-06-28 07:48:00,71.9,67.1,29.68,WSW,250,4.0,4.0,85,0.00,,,0.00,178,WeatherCatV1.15B25,2013-06-28 11:48:00,
2013-06-28 07:53:00,72.0,66.9,29.68,West,273,3.0,6.0,84,0.00,,,0.00,193,WeatherCatV1.15B25,2013-06-28 11:53:00,
2013-06-28 07:58:00,72.2,66.7,29.68,WSW,239,3.0,7.0,83,0.00,,,0.00,207,WeatherCatV1.15B25,2013-06-28 11:58:00,
2013-06-28 08:03:00,72.3,66.8,29.68,West,263,3.0,6.0,83,0.00,,,0.00,223,WeatherCatV1.15B25,2013-06-28 12:03:00,
2013-06-28 08:08:00,72.4,66.6,29.68,WSW,246,4.0,9.0,82,0.00,,,0.00,239,WeatherCatV1.15B25,2013-06-28 12:08:00,
2013-06-28 08:13:00,72.5,66.7,29.68,West,266,3.0,6.0,82,0.00,,,0.00,253,WeatherCatV1.15B25,2013-06-28 12:13:00,
2013-06-28 08:18:00,72.7,66.9,29.69,WSW,254,4.0,9.0,82,0.00,,,0.00,269,WeatherCatV1.15B25,2013-06-28 12:18:00,
2013-06-28 08:23:00,73.0,66.8,29.68,WSW,246,4.0,9.0,81,0.00,,,0.00,285,WeatherCatV1.15B25,2013-06-28 12:23:00,
2013-06-28 08:28:00,73.2,67.0,29.69,West,259,3.0,9.0,81,0.00,,,0.00,302,WeatherCatV1.15B25,2013-06-28 12:28:00,
2013-06-28 08:33:00,73.4,66.8,29.69,SW,226,6.0,10.0,80,0.00,,,0.00,315,WeatherCatV1.15B25,2013-06-28 12:33:00,
2013-06-28 08:38:00,73.5,66.9,29.69,SW,234,2.0,7.0,80,0.00,,,0.00,330,WeatherCatV1.15B25,2013-06-28 12:38:00,
2013-06-28 08:43:00,73.7,67.5,29.69,West,272,4.0,7.0,81,0.00,,,0.00,345,WeatherCatV1.15B25,2013-06-28 12:43:00,
2013-06-28 08:48:00,74.0,67.1,29.68,West,269,4.0,7.0,79,0.00,,,0.00,360,WeatherCatV1.15B25,2013-06-28 12:48:00,
2013-06-28 08:53:00,74.2,67.3,29.68,WSW,255,2.0,9.0,79,0.00,,,0.00,376,WeatherCatV1.15B25,2013-06-28 12:53:00,
2013-06-28 08:58:00,74.3,67.0,29.68,WNW,291,7.0,7.0,78,0.00,,,0.00,394,WeatherCatV1.15B25,2013-06-28 12:58:00,
2013-06-28 09:03:00,74.4,66.7,29.68,West,273,4.0,10.0,77,0.00,,,0.00,408,WeatherCatV1.15B25,2013-06-28 13:03:00,
2013-06-28 09:08:00,74.6,66.9,29.68,West,262,5.0,7.0,77,0.00,,,0.00,424,WeatherCatV1.15B25,2013-06-28 13:08:00,
2013-06-28 09:13:00,74.8,67.1,29.68,West,271,5.0,12.0,77,0.00,,,0.00,441,WeatherCatV1.15B25,2013-06-28 13:13:00,
2013-06-28 09:18:00,75.1,67.0,29.68,West,277,10.0,12.0,76,0.00,,,0.00,457,WeatherCatV1.15B25,2013-06-28 13:18:00,
2013-06-28 09:23:00,75.3,67.2,29.68,WNW,296,3.0,5.0,76,0.00,,,0.00,475,WeatherCatV1.15B25,2013-06-28 13:23:00,
2013-06-28 09:28:00,75.7,67.6,29.68,West,277,3.0,8.0,76,0.00,,,0.00,487,WeatherCatV1.15B25,2013-06-28 13:28:00,
2013-06-28 09:33:00,76.0,67.9,29.68,SW,228,6.0,6.0,76,0.00,,,0.00,504,WeatherCatV1.15B25,2013-06-28 13:33:00,
2013-06-28 09:38:00,76.4,67.9,29.68,West,281,3.0,6.0,75,0.00,,,0.00,519,WeatherCatV1.15B25,2013-06-28 13:38:00,
2013-06-28 09:43:00,76.6,67.7,29.68,SW,236,9.0,9.0,74,0.00,,,0.00,533,WeatherCatV1.15B25,2013-06-28 13:43:00,
2013-06-28 09:48:00,76.6,67.7,29.68,WSW,254,4.0,7.0,74,0.00,,,0.00,548,WeatherCatV1.15B25,2013-06-28 13:48:00,
2013-06-28 09:53:00,76.8,67.5,29.68,NW,312,3.0,7.0,73,0.00,,,0.00,563,WeatherCatV1.15B25,2013-06-28 13:53:00,
2013-06-28 09:58:00,77.0,67.7,29.68,West,279,4.0,7.0,73,0.00,,,0.00,578,WeatherCatV1.15B25,2013-06-28 13:58:00,
2013-06-28 10:03:00,77.1,67.8,29.68,SW,234,4.0,9.0,73,0.00,,,0.00,594,WeatherCatV1.15B25,2013-06-28 14:03:00,
2013-06-28 10:08:00,77.3,68.0,29.67,WSW,239,7.0,10.0,73,0.00,,,0.00,610,WeatherCatV1.15B25,2013-06-28 14:08:00,
2013-06-28 10:13:00,77.5,67.7,29.67,WSW,239,8.0,12.0,72,0.00,,,0.00,624,WeatherCatV1.15B25,2013-06-28 14:13:00,
2013-06-28 10:18:00,77.5,67.7,29.67,WSW,237,8.0,8.0,72,0.00,,,0.00,638,WeatherCatV1.15B25,2013-06-28 14:18:00,
2013-06-28 10:23:00,77.7,67.9,29.67,WSW,250,6.0,7.0,72,0.00,,,0.00,650,WeatherCatV1.15B25,2013-06-28 14:23:00,
2013-06-28 10:28:00,78.0,67.4,29.67,WSW,237,3.0,10.0,70,0.00,,,0.00,668,WeatherCatV1.15B25,2013-06-28 14:28:00,
2013-06-28 10:33:00,78.1,67.1,29.67,SW,234,5.0,8.0,69,0.00,,,0.00,680,WeatherCatV1.15B25,2013-06-28 14:33:00,
2013-06-28 10:38:00,78.1,67.1,29.67,West,265,9.0,9.0,69,0.00,,,0.00,694,WeatherCatV1.15B25,2013-06-28 14:38:00,
2013-06-28 10:43:00,78.4,67.8,29.67,WSW,240,2.0,5.0,70,0.00,,,0.00,707,WeatherCatV1.15B25,2013-06-28 14:43:00,
2013-06-28 10:48:00,79.0,67.9,29.67,WSW,242,4.0,9.0,69,0.00,,,0.00,719,WeatherCatV1.15B25,2013-06-28 14:48:00,
2013-06-28 10:53:00,79.1,67.6,29.67,WSW,256,2.0,8.0,68,0.00,,,0.00,728,WeatherCatV1.15B25,2013-06-28 14:53:00,
2013-06-28 10:58:00,79.2,66.8,29.67,WSW,252,9.0,16.0,66,0.00,,,0.00,745,WeatherCatV1.15B25,2013-06-28 14:58:00,
2013-06-28 11:03:00,79.2,67.3,29.67,WNW,302,4.0,9.0,67,0.00,,,0.00,758,WeatherCatV1.15B25,2013-06-28 15:03:00,
2013-06-28 11:08:00,79.7,66.9,29.67,WSW,258,4.0,6.0,65,0.00,,,0.00,766,WeatherCatV1.15B25,2013-06-28 15:08:00,
2013-06-28 11:13:00,79.8,66.5,29.67,WSW,245,9.0,9.0,64,0.00,,,0.00,779,WeatherCatV1.15B25,2013-06-28 15:13:00,
2013-06-28 11:18:00,80.0,67.6,29.67,WSW,253,6.0,6.0,66,0.00,,,0.00,788,WeatherCatV1.15B25,2013-06-28 15:18:00,
2013-06-28 11:23:00,80.5,65.8,29.67,West,279,3.0,15.0,61,0.00,,,0.00,802,WeatherCatV1.15B25,2013-06-28 15:23:00,
2013-06-28 11:28:00,80.9,66.2,29.67,NNW,340,3.0,10.0,61,0.00,,,0.00,812,WeatherCatV1.15B25,2013-06-28 15:28:00,
2013-06-28 11:33:00,81.5,66.2,29.67,West,276,9.0,9.0,60,0.00,,,0.00,788,WeatherCatV1.15B25,2013-06-28 15:33:00,
2013-06-28 11:38:00,81.6,65.9,29.66,SW,231,6.0,10.0,59,0.00,,,0.00,831,WeatherCatV1.15B25,2013-06-28 15:38:00,
2013-06-28 11:43:00,81.7,65.9,29.67,WSW,253,6.0,11.0,59,0.00,,,0.00,840,WeatherCatV1.15B25,2013-06-28 15:43:00,
2013-06-28 11:48:00,82.1,66.8,29.67,WSW,254,2.0,8.0,60,0.00,,,0.00,847,WeatherCatV1.15B25,2013-06-28 15:48:00,
2013-06-28 11:53:00,82.4,65.6,29.67,WSW,252,7.0,12.0,57,0.00,,,0.00,853,WeatherCatV1.15B25,2013-06-28 15:53:00,
2013-06-28 11:58:00,82.4,65.1,29.67,SW,219,8.0,12.0,56,0.00,,,0.00,872,WeatherCatV1.15B25,2013-06-28 15:58:00,
2013-06-28 12:03:00,82.4,65.1,29.67,WSW,254,7.0,10.0,56,0.00,,,0.00,882,WeatherCatV1.15B25,2013-06-28 16:03:00,
2013-06-28 12:08:00,82.5,66.2,29.67,West,270,1.0,6.0,58,0.00,,,0.00,888,WeatherCatV1.15B25,2013-06-28 16:08:00,
2013-06-28 12:13:00,82.8,64.4,29.67,SW,227,9.0,13.0,54,0.00,,,0.00,905,WeatherCatV1.15B25,2013-06-28 16:13:00,
2013-06-28 12:18:00,83.2,64.3,29.67,West,275,6.0,13.0,53,0.00,,,0.00,997,WeatherCatV1.15B25,2013-06-28 16:18:00,
2013-06-28 12:23:00,83.5,64.5,29.67,SW,219,6.0,12.0,53,0.00,,,0.00,939,WeatherCatV1.15B25,2013-06-28 16:23:00,
2013-06-28 12:28:00,83.5,64.5,29.67,WSW,240,7.0,10.0,53,0.00,,,0.00,967,WeatherCatV1.15B25,2013-06-28 16:28:00,
2013-06-28 12:33:00,83.7,63.6,29.67,NNE,25,5.0,13.0,51,0.00,,,0.00,1035,WeatherCatV1.15B25,2013-06-28 16:33:00,
2013-06-28 12:38:00,83.3,62.7,29.67,WSW,242,14.0,16.0,50,0.00,,,0.00,1018,WeatherCatV1.15B25,2013-06-28 16:38:00,
2013-06-28 12:43:00,83.3,62.7,29.67,West,265,9.0,10.0,50,0.00,,,0.00,1023,WeatherCatV1.15B25,2013-06-28 16:43:00,
2013-06-28 12:48:00,83.7,62.5,29.67,SSW,208,3.0,16.0,49,0.00,,,0.00,1049,WeatherCatV1.15B25,2013-06-28 16:48:00,
2013-06-28 12:53:00,84.2,64.1,29.67,WNW,297,11.0,14.0,51,0.00,,,0.00,1071,WeatherCatV1.15B25,2013-06-28 16:53:00,
2013-06-28 12:58:00,84.1,64.0,29.67,West,269,6.0,10.0,51,0.00,,,0.00,288,WeatherCatV1.15B25,2013-06-28 16:58:00,
2013-06-28 13:03:00,83.7,64.2,29.67,WSW,243,11.0,15.0,52,0.00,,,0.00,1097,WeatherCatV1.15B25,2013-06-28 17:03:00,
2013-06-28 13:08:00,83.5,62.9,29.67,NW,309,4.0,14.0,50,0.00,,,0.00,1046,WeatherCatV1.15B25,2013-06-28 17:08:00,
2013-06-28 13:13:00,83.8,63.1,29.66,WNW,299,11.0,12.0,50,0.00,,,0.00,1021,WeatherCatV1.15B25,2013-06-28 17:13:00,
2013-06-28 13:18:00,83.8,63.7,29.66,West,260,5.0,10.0,51,0.00,,,0.00,835,WeatherCatV1.15B25,2013-06-28 17:18:00,
2013-06-28 13:23:00,83.8,63.7,29.66,WSW,241,7.0,9.0,51,0.00,,,0.00,290,WeatherCatV1.15B25,2013-06-28 17:23:00,
2013-06-28 13:28:00,83.5,64.0,29.66,WNW,287,8.0,10.0,52,0.00,,,0.00,364,WeatherCatV1.15B25,2013-06-28 17:28:00,
2013-06-28 13:33:00,83.6,63.0,29.66,WSW,243,11.0,19.0,50,0.00,,,0.00,1060,WeatherCatV1.15B25,2013-06-28 17:33:00,
2013-06-28 13:38:00,83.8,62.6,29.66,WSW,248,4.0,10.0,49,0.00,,,0.00,1095,WeatherCatV1.15B25,2013-06-28 17:38:00,
2013-06-28 13:43:00,83.6,63.0,29.66,NW,319,7.0,15.0,50,0.00,,,0.00,162,WeatherCatV1.15B25,2013-06-28 17:43:00,
2013-06-28 13:48:00,83.3,64.4,29.65,SW,232,5.0,8.0,53,0.00,,,0.00,1023,WeatherCatV1.15B25,2013-06-28 17:48:00,
2013-06-28 13:53:00,83.6,63.5,29.65,SSW,211,7.0,10.0,51,0.00,,,0.00,1013,WeatherCatV1.15B25,2013-06-28 17:53:00,
2013-06-28 13:58:00,83.9,62.7,29.65,WSW,252,5.0,14.0,49,0.00,,,0.00,1107,WeatherCatV1.15B25,2013-06-28 17:58:00,
2013-06-28 14:03:00,83.8,62.6,29.65,WSW,257,4.0,12.0,49,0.00,,,0.00,176,WeatherCatV1.15B25,2013-06-28 18:03:00,
2013-06-28 14:08:00,83.7,63.1,29.65,SSW,209,6.0,10.0,50,0.00,,,0.00,1028,WeatherCatV1.15B25,2013-06-28 18:08:00,
2013-06-28 14:13:00,84.0,60.3,29.65,West,263,7.0,15.0,45,0.00,,,0.00,1085,WeatherCatV1.15B25,2013-06-28 18:13:00,
2013-06-28 14:18:00,84.3,61.2,29.65,WNW,282,8.0,16.0,46,0.00,,,0.00,1009,WeatherCatV1.15B25,2013-06-28 18:18:00,
2013-06-28 14:23:00,84.5,61.4,29.64,WNW,298,13.0,13.0,46,0.00,,,0.00,1002,WeatherCatV1.15B25,2013-06-28 18:23:00,
2013-06-28 14:28:00,84.6,60.2,29.64,West,277,5.0,15.0,44,0.00,,,0.00,972,WeatherCatV1.15B25,2013-06-28 18:28:00,
2013-06-28 14:33:00,84.6,60.9,29.64,WSW,248,7.0,13.0,45,0.00,,,0.00,1002,WeatherCatV1.15B25,2013-06-28 18:33:00,
2013-06-28 14:38:00,84.6,60.2,29.64,WSW,248,7.0,12.0,44,0.00,,,0.00,997,WeatherCatV1.15B25,2013-06-28 18:38:00,
2013-06-28 14:43:00,84.7,61.6,29.64,WSW,257,5.0,13.0,46,0.00,,,0.00,967,WeatherCatV1.15B25,2013-06-28 18:43:00,
2013-06-28 14:48:00,85.0,61.9,29.64,WNW,283,6.0,12.0,46,0.00,,,0.00,1023,WeatherCatV1.15B25,2013-06-28 18:48:00,
2013-06-28 14:53:00,85.5,62.9,29.63,West,261,8.0,12.0,47,0.00,,,0.00,1025,WeatherCatV1.15B25,2013-06-28 18:53:00,
2013-06-28 14:55:00,85.4,62.2,29.63,SW,229,7.0,13.0,46,0.00,,,0.00,1035,WeatherCatV1.15B25,2013-06-28 18:55:00,
2013-06-28 15:00:00,85.4,62.2,29.63,West,279,2.0,13.0,46,0.00,,,0.00,1020,WeatherCatV1.15B25,2013-06-28 19:00:00,
2013-06-28 15:05:00,85.2,61.4,29.63,SW,217,4.0,14.0,45,0.00,,,0.00,949,WeatherCatV1.15B25,2013-06-28 19:05:00,
2013-06-28 15:10:00,85.1,60.7,29.63,NW,324,4.0,13.0,44,0.00,,,0.00,956,WeatherCatV1.15B25,2013-06-28 19:10:00,
2013-06-28 15:15:00,85.1,62.0,29.63,WSW,246,6.0,12.0,46,0.00,,,0.00,1023,WeatherCatV1.15B25,2013-06-28 19:15:00,
2013-06-28 15:20:00,84.9,61.8,29.63,SW,234,13.0,15.0,46,0.00,,,0.00,221,WeatherCatV1.15B25,2013-06-28 19:20:00,
2013-06-28 15:25:00,84.6,60.9,29.63,SSW,212,4.0,11.0,45,0.00,,,0.00,188,WeatherCatV1.15B25,2013-06-28 19:25:00,
2013-06-28 15:30:00,84.7,61.6,29.62,WSW,252,4.0,12.0,46,0.00,,,0.00,935,WeatherCatV1.15B25,2013-06-28 19:30:00,
2013-06-28 15:35:00,85.0,61.9,29.62,WSW,258,4.0,6.0,46,0.00,,,0.00,937,WeatherCatV1.15B25,2013-06-28 19:35:00,
2013-06-28 15:40:00,85.1,62.0,29.62,WSW,240,7.0,11.0,46,0.00,,,0.00,988,WeatherCatV1.15B25,2013-06-28 19:40:00,
2013-06-28 15:45:00,85.3,61.5,29.62,WSW,240,8.0,13.0,45,0.00,,,0.00,905,WeatherCatV1.15B25,2013-06-28 19:45:00,
2013-06-28 15:50:00,85.3,60.9,29.62,SW,235,8.0,14.0,44,0.00,,,0.00,879,WeatherCatV1.15B25,2013-06-28 19:50:00,
2013-06-28 15:55:00,84.9,59.9,29.62,West,267,7.0,16.0,43,0.00,,,0.00,872,WeatherCatV1.15B25,2013-06-28 19:55:00,
2013-06-28 16:00:00,84.9,60.5,29.62,WNW,294,4.0,14.0,44,0.00,,,0.00,842,WeatherCatV1.15B25,2013-06-28 20:00:00,
2013-06-28 16:05:00,85.1,61.3,29.62,WSW,237,8.0,9.0,45,0.00,,,0.00,837,WeatherCatV1.15B25,2013-06-28 20:05:00,
2013-06-28 16:10:00,85.1,59.4,29.62,WSW,244,4.0,16.0,42,0.00,,,0.00,826,WeatherCatV1.15B25,2013-06-28 20:10:00,
2013-06-28 16:15:00,85.1,60.1,29.62,West,277,6.0,16.0,43,0.00,,,0.00,826,WeatherCatV1.15B25,2013-06-28 20:15:00,
2013-06-28 16:20:00,85.1,62.0,29.62,WNW,303,7.0,8.0,46,0.00,,,0.00,805,WeatherCatV1.15B25,2013-06-28 20:20:00,
2013-06-28 16:25:00,85.2,60.1,29.61,NW,312,5.0,18.0,43,0.00,,,0.00,812,WeatherCatV1.15B25,2013-06-28 20:25:00,
2013-06-28 16:30:00,85.2,59.5,29.61,WSW,255,4.0,13.0,42,0.00,,,0.00,821,WeatherCatV1.15B25,2013-06-28 20:30:00,
2013-06-28 16:35:00,85.2,59.5,29.61,SW,235,4.0,10.0,42,0.00,,,0.00,824,WeatherCatV1.15B25,2013-06-28 20:35:00,
2013-06-28 16:40:00,85.5,59.1,29.61,WSW,244,7.0,15.0,41,0.00,,,0.00,786,WeatherCatV1.15B25,2013-06-28 20:40:00,
2013-06-28 16:45:00,85.6,59.8,29.61,West,261,7.0,10.0,42,0.00,,,0.00,791,WeatherCatV1.15B25,2013-06-28 20:45:00,
2013-06-28 16:50:00,85.5,59.8,29.61,SW,222,8.0,13.0,42,0.00,,,0.00,788,WeatherCatV1.15B25,2013-06-28 20:50:00,
2013-06-28 16:55:00,85.4,59.7,29.61,West,261,3.0,11.0,42,0.00,,,0.00,763,WeatherCatV1.15B25,2013-06-28 20:55:00,
2013-06-28 17:00:00,85.3,60.2,29.61,NW,307,5.0,11.0,43,0.00,,,0.00,761,WeatherCatV1.15B25,2013-06-28 21:00:00,
2013-06-28 17:05:00,85.3,60.2,29.61,SW,233,5.0,14.0,43,0.00,,,0.00,728,WeatherCatV1.15B25,2013-06-28 21:05:00,
2013-06-28 17:10:00,85.4,61.0,29.61,WNW,289,4.0,10.0,44,0.00,,,0.00,137,WeatherCatV1.15B25,2013-06-28 21:10:00,
2013-06-28 17:15:00,85.4,60.3,29.61,WNW,292,4.0,9.0,43,0.00,,,0.00,707,WeatherCatV1.15B25,2013-06-28 21:15:00,
2013-06-28 17:20:00,85.5,60.4,29.60,WSW,244,3.0,8.0,43,0.00,,,0.00,357,WeatherCatV1.15B25,2013-06-28 21:20:00,
2013-06-28 17:25:00,85.6,60.5,29.61,SW,233,6.0,7.0,43,0.00,,,0.00,795,WeatherCatV1.15B25,2013-06-28 21:25:00,
2013-06-28 17:30:00,85.6,59.8,29.61,WSW,258,7.0,8.0,42,0.00,,,0.00,640,WeatherCatV1.15B25,2013-06-28 21:30:00,
2013-06-28 17:35:00,85.1,59.4,29.61,SW,235,7.0,11.0,42,0.00,,,0.00,190,WeatherCatV1.15B25,2013-06-28 21:35:00,
2013-06-28 17:40:00,84.4,59.4,29.61,WSW,254,3.0,12.0,43,0.00,,,0.00,209,WeatherCatV1.15B25,2013-06-28 21:40:00,
2013-06-28 17:45:00,83.8,60.2,29.61,West,268,6.0,8.0,45,0.00,,,0.00,197,WeatherCatV1.15B25,2013-06-28 21:45:00,
2013-06-28 17:50:00,83.4,59.8,29.61,WSW,255,4.0,10.0,45,0.00,,,0.00,183,WeatherCatV1.15B25,2013-06-28 21:50:00,
2013-06-28 17:55:00,83.1,60.1,29.61,West,267,7.0,9.0,46,0.00,,,0.00,218,WeatherCatV1.15B25,2013-06-28 21:55:00,
2013-06-28 18:00:00,82.9,60.6,29.61,WNW,294,6.0,8.0,47,0.00,,,0.00,193,WeatherCatV1.15B25,2013-06-28 22:00:00,
2013-06-28 18:05:00,82.6,60.9,29.62,WNW,291,9.0,9.0,48,0.00,,,0.00,97,WeatherCatV1.15B25,2013-06-28 22:05:00,
2013-06-28 18:10:00,79.6,59.3,29.65,NW,320,9.0,29.0,50,0.00,,,0.00,35,WeatherCatV1.15B25,2013-06-28 22:10:00,
2013-06-28 18:15:00,76.0,60.6,29.65,NNW,332,9.0,12.0,59,0.00,,,0.00,56,WeatherCatV1.15B25,2013-06-28 22:15:00,
2013-06-28 18:20:00,74.1,62.0,29.64,NNW,331,7.0,9.0,66,0.00,,,0.00,74,WeatherCatV1.15B25,2013-06-28 22:20:00,
2013-06-28 18:25:00,72.9,62.1,29.64,NW,308,6.0,10.0,69,0.00,,,0.00,53,WeatherCatV1.15B25,2013-06-28 22:25:00,
2013-06-28 18:30:00,71.4,61.5,29.65,NW,320,12.0,17.0,71,0.00,,,0.00,42,WeatherCatV1.15B25,2013-06-28 22:30:00,
2013-06-28 18:35:00,70.2,61.5,29.65,North,0,6.0,10.0,74,0.00,,,0.00,35,WeatherCatV1.15B25,2013-06-28 22:35:00,
2013-06-28 18:40:00,69.8,62.3,29.66,NNW,327,2.0,5.0,77,0.00,,,0.00,35,WeatherCatV1.15B25,2013-06-28 22:40:00,
2013-06-28 18:45:00,69.6,62.4,29.67,WNW,283,8.0,8.0,78,0.00,,,0.00,21,WeatherCatV1.15B25,2013-06-28 22:45:00,
2013-06-28 18:50:00,69.3,62.5,29.67,West,259,1.0,3.0,79,0.00,,,0.01,33,WeatherCatV1.15B25,2013-06-28 22:50:00,
2013-06-28 18:55:00,69.0,62.6,29.67,West,259,0.0,2.0,80,0.00,,,0.01,47,WeatherCatV1.15B25,2013-06-28 22:55:00,
2013-06-28 19:00:00,68.8,63.1,29.67,WSW,258,0.0,0.0,82,0.00,,,0.01,58,WeatherCatV1.15B25,2013-06-28 23:00:00,
2013-06-28 19:05:00,69.2,63.1,29.65,NNE,27,0.0,2.0,81,0.00,,,0.01,84,WeatherCatV1.15B25,2013-06-28 23:05:00,
2013-06-28 19:10:00,69.4,62.6,29.65,NE,34,0.0,1.0,79,0.00,,,0.01,113,WeatherCatV1.15B25,2013-06-28 23:10:00,
2013-06-28 19:15:00,69.6,63.1,29.65,WNW,289,4.0,5.0,80,0.00,,,0.01,114,WeatherCatV1.15B25,2013-06-28 23:15:00,
2013-06-28 19:20:00,69.6,63.1,29.65,NNW,345,2.0,4.0,80,0.00,,,0.01,51,WeatherCatV1.15B25,2013-06-28 23:20:00,
2013-06-28 19:25:00,69.5,63.0,29.64,NNW,340,1.0,4.0,80,0.00,,,0.01,37,WeatherCatV1.15B25,2013-06-28 23:25:00,
2013-06-28 19:30:00,69.5,62.3,29.64,NNW,340,1.0,3.0,78,0.00,,,0.01,44,WeatherCatV1.15B25,2013-06-28 23:30:00,
2013-06-28 19:35:00,69.7,63.2,29.65,NNW,340,0.0,0.0,80,0.00,,,0.01,62,WeatherCatV1.15B25,2013-06-28 23:35:00,
2013-06-28 19:40:00,69.9,63.1,29.64,NNW,340,0.0,1.0,79,0.00,,,0.01,123,WeatherCatV1.15B25,2013-06-28 23:40:00,
2013-06-28 19:45:00,70.1,62.5,29.64,NNW,340,2.0,3.0,77,0.00,,,0.01,118,WeatherCatV1.15B25,2013-06-28 23:45:00,
2013-06-28 19:50:00,70.4,62.5,29.63,NNW,340,2.0,3.0,76,0.00,,,0.01,56,WeatherCatV1.15B25,2013-06-28 23:50:00,
2013-06-28 19:55:00,70.5,62.2,29.63,NNW,340,2.0,2.0,75,0.00,,,0.01,47,WeatherCatV1.15B25,2013-06-28 23:55:00,
2013-06-28 20:00:00,70.6,63.0,29.64,WNW,302,4.0,5.0,77,0.00,,,0.01,65,WeatherCatV1.15B25,2013-06-29 00:00:00,
2013-06-28 20:05:00,70.3,62.4,29.65,NW,322,1.0,7.0,76,0.00,,,0.01,77,WeatherCatV1.15B25,2013-06-29 00:05:00,
2013-06-28 20:10:00,70.3,62.4,29.64,North,357,6.0,10.0,76,0.00,,,0.01,49,WeatherCatV1.15B25,2013-06-29 00:10:00,
2013-06-28 20:15:00,70.3,62.0,29.64,NNE,13,4.0,5.0,75,0.00,,,0.01,46,WeatherCatV1.15B25,2013-06-29 00:15:00,
2013-06-28 20:20:00,70.0,62.1,29.64,NNE,33,3.0,3.0,76,0.00,,,0.01,44,WeatherCatV1.15B25,2013-06-29 00:20:00,
2013-06-28 20:25:00,69.8,62.3,29.64,NNW,331,1.0,2.0,77,0.00,,,0.01,54,WeatherCatV1.15B25,2013-06-29 00:25:00,
2013-06-28 20:30:00,69.7,62.5,29.64,NW,326,1.0,3.0,78,0.00,,,0.01,28,WeatherCatV1.15B25,2013-06-29 00:30:00,
2013-06-28 20:35:00,70.0,62.4,29.64,NNW,340,0.0,0.0,77,0.00,,,0.01,18,WeatherCatV1.15B25,2013-06-29 00:35:00,
2013-06-28 20:40:00,69.8,61.5,29.64,ESE,115,0.0,4.0,75,0.00,,,0.01,12,WeatherCatV1.15B25,2013-06-29 00:40:00,
2013-06-28 20:45:00,69.7,62.2,29.63,ESE,115,0.0,1.0,77,0.00,,,0.01,9,WeatherCatV1.15B25,2013-06-29 00:45:00,
2013-06-28 20:50:00,69.7,62.5,29.64,NNW,340,2.0,3.0,78,0.00,,,0.01,7,WeatherCatV1.15B25,2013-06-29 00:50:00,
2013-06-28 20:55:00,69.6,62.4,29.64,NNW,340,0.0,2.0,78,0.00,,,0.01,7,WeatherCatV1.15B25,2013-06-29 00:55:00,
2013-06-28 21:00:00,69.4,62.2,29.64,NNE,33,0.0,1.0,78,0.00,,,0.01,0,WeatherCatV1.15B25,2013-06-29 01:00:00,
2013-06-28 21:05:00,69.3,62.1,29.63,NNE,33,0.0,0.0,78,0.00,,,0.01,0,WeatherCatV1.15B25,2013-06-29 01:05:00,
2013-06-28 21:10:00,69.2,62.4,29.64,NNE,31,1.0,3.0,79,0.00,,,0.01,0,WeatherCatV1.15B25,2013-06-29 01:10:00,
2013-06-28 21:15:00,69.1,62.7,29.64,North,350,4.0,6.0,80,0.00,,,0.01,0,WeatherCatV1.15B25,2013-06-29 01:15:00,
2013-06-28 21:20:00,68.8,62.0,29.64,NW,324,1.0,4.0,79,0.00,,,0.01,0,WeatherCatV1.15B25,2013-06-29 01:20:00,
2013-06-28 21:25:00,68.7,61.9,29.64,NW,324,1.0,3.0,79,0.00,,,0.01,0,WeatherCatV1.15B25,2013-06-29 01:25:00,
2013-06-28 21:30:00,68.6,62.5,29.65,NW,322,5.0,5.0,81,0.00,,,0.01,0,WeatherCatV1.15B25,2013-06-29 01:30:00,
2013-06-28 21:35:00,68.6,63.2,29.64,North,2,2.0,4.0,83,0.00,,,0.02,0,WeatherCatV1.15B25,2013-06-29 01:35:00,
2013-06-28 21:40:00,68.4,63.0,29.64,North,350,2.0,3.0,83,0.00,,,0.02,0,WeatherCatV1.15B25,2013-06-29 01:40:00,
2013-06-28 21:45:00,68.1,62.4,29.63,NW,317,0.0,2.0,82,0.00,,,0.02,0,WeatherCatV1.15B25,2013-06-29 01:45:00,
2013-06-28 21:50:00,68.0,62.3,29.64,NW,317,1.0,3.0,82,0.00,,,0.02,0,WeatherCatV1.15B25,2013-06-29 01:50:00,
2013-06-28 21:55:00,67.9,62.5,29.64,NW,317,0.0,2.0,83,0.00,,,0.02,0,WeatherCatV1.15B25,2013-06-29 01:55:00,
2013-06-28 22:00:00,67.8,62.8,29.64,NW,317,2.0,2.0,84,0.00,,,0.02,0,WeatherCatV1.15B25,2013-06-29 02:00:00,
2013-06-28 22:05:00,67.6,62.2,29.64,West,260,2.0,3.0,83,0.00,,,0.02,0,WeatherCatV1.15B25,2013-06-29 02:05:00,
2013-06-28 22:10:00,67.4,62.4,29.65,WSW,249,3.0,3.0,84,0.00,,,0.02,0,WeatherCatV1.15B25,2013-06-29 02:10:00,
2013-06-28 22:15:00,67.3,62.0,29.64,WSW,249,0.0,1.0,83,0.00,,,0.02,0,WeatherCatV1.15B25,2013-06-29 02:15:00,
2013-06-28 22:20:00,67.3,62.6,29.65,WSW,249,0.0,2.0,85,0.00,,,0.02,0,WeatherCatV1.15B25,2013-06-29 02:20:00,
2013-06-28 22:25:00,67.4,62.7,29.65,WSW,249,2.0,2.0,85,0.00,,,0.02,0,WeatherCatV1.15B25,2013-06-29 02:25:00,
2013-06-28 22:30:00,67.4,62.7,29.65,WSW,249,1.0,3.0,85,0.00,,,0.02,0,WeatherCatV1.15B25,2013-06-29 02:30:00,
2013-06-28 22:35:00,67.3,62.6,29.65,WSW,249,2.0,3.0,85,0.00,,,0.02,0,WeatherCatV1.15B25,2013-06-29 02:35:00,
2013-06-28 22:40:00,67.2,62.2,29.64,WSW,249,1.0,1.0,84,0.00,,,0.02,0,WeatherCatV1.15B25,2013-06-29 02:40:00,
2013-06-28 22:45:00,67.2,62.2,29.64,WSW,249,2.0,3.0,84,0.00,,,0.02,0,WeatherCatV1.15B25,2013-06-29 02:45:00,
2013-06-28 22:50:00,67.1,62.1,29.64,WSW,249,1.0,2.0,84,0.00,,,0.02,0,WeatherCatV1.15B25,2013-06-29 02:50:00,
2013-06-28 22:55:00,67.1,62.1,29.65,WSW,249,0.0,1.0,84,0.00,,,0.02,0,WeatherCatV1.15B25,2013-06-29 02:55:00,
2013-06-28 23:00:00,67.1,62.1,29.65,WSW,249,2.0,2.0,84,0.00,,,0.02,0,WeatherCatV1.15B25,2013-06-29 03:00:00,
2013-06-28 23:05:00,67.1,62.1,29.64,WSW,249,2.0,2.0,84,0.00,,,0.02,0,WeatherCatV1.15B25,2013-06-29 03:05:00,
2013-06-28 23:10:00,67.1,62.1,29.65,WSW,249,1.0,4.0,84,0.00,,,0.02,0,WeatherCatV1.15B25,2013-06-29 03:10:00,
2013-06-28 23:15:00,67.1,62.1,29.65,WSW,249,1.0,1.0,84,0.00,,,0.02,0,WeatherCatV1.15B25,2013-06-29 03:15:00,
2013-06-28 23:20:00,67.0,62.3,29.65,WSW,249,2.0,2.0,85,0.00,,,0.02,0,WeatherCatV1.15B25,2013-06-29 03:20:00,
2013-06-28 23:25:00,66.9,62.2,29.64,WSW,249,1.0,3.0,85,0.00,,,0.02,0,WeatherCatV1.15B25,2013-06-29 03:25:00,
2013-06-28 23:30:00,66.8,62.1,29.64,WSW,249,0.0,2.0,85,0.00,,,0.02,0,WeatherCatV1.15B25,2013-06-29 03:30:00,
2013-06-28 23:35:00,66.7,62.4,29.64,WSW,249,0.0,1.0,86,0.00,,,0.02,0,WeatherCatV1.15B25,2013-06-29 03:35:00,
2013-06-28 23:40:00,66.6,62.6,29.64,SSE,159,0.0,1.0,87,0.00,,,0.02,0,WeatherCatV1.15B25,2013-06-29 03:40:00,
2013-06-28 23:45:00,66.5,62.5,29.64,SSE,159,0.0,2.0,87,0.00,,,0.02,0,WeatherCatV1.15B25,2013-06-29 03:45:00,
2013-06-28 23:50:00,66.4,62.7,29.64,SSW,209,2.0,4.0,88,0.00,,,0.02,0,WeatherCatV1.15B25,2013-06-29 03:50:00,
2013-06-28 23:55:00,66.3,63.0,29.66,WNW,295,4.0,12.0,89,0.00,,,0.02,0,WeatherCatV1.15B25,2013-06-29 03:55:00,